Date String (YYYY-MM-DD hh:mm:ss) UTC,Instrument flags,Ambient pressure (hPa),Sample flow (lpm),Bypass flow (lpm),Sample temperature (°C),Ambient temperature (°C),ASC tube jacket temperature (°C),LED temperature (°C),Box temperature (°C),Sample RH (%),Span deviation,Mass concentration (μg/m³),Mass concentration (μg/m³),Mass concentration (μg/m³)
DateTimeUTC,F1_M11,P_M11,Q1_M11,Q2_M11,T1_M11,T2_M11,T3_M11,T4_M11,T5_M11,U1_M11,ZSPAN_M11,X0_M11,X2_M11,X1_M11
2023-01-09 04:00:00,,0824.2,4.99,0.00,22.7,21.4,00.0,31.5,24.3,09.6,0001.9,0010.44,0006.17,0005.88
2023-01-09 04:01:00,,0824.2,5.00,0.00,22.7,21.4,00.0,31.5,24.3,09.4,0002.0,0010.26,0006.15,0005.87
2023-01-09 04:02:00,,0824.3,5.01,0.00,22.6,21.4,00.0,31.5,24.3,09.2,0002.5,0009.93,0006.11,0005.83
2023-01-09 04:03:00,,0824.4,5.00,0.00,22.6,21.4,00.0,31.5,24.4,09.2,0003.0,0009.45,0006.03,0005.79
2023-01-09 04:04:00,,0824.2,5.00,0.00,22.6,21.3,00.0,31.5,24.3,09.2,0003.2,0009.17,0005.92,0005.70
2023-01-09 04:05:00,,0824.2,5.00,0.00,22.6,21.4,00.0,31.5,24.4,09.3,0003.3,0009.01,0005.81,0005.59
2023-01-09 04:06:00,,0824.2,4.99,0.00,22.7,21.4,00.0,31.5,24.4,09.2,0003.2,0008.35,0005.70,0005.49
2023-01-09 04:07:00,,0824.2,5.01,0.00,22.6,21.4,00.0,31.5,24.3,09.4,0003.4,0008.34,0005.61,0005.40
2023-01-09 04:08:00,,0824.2,5.01,0.00,22.7,21.4,00.0,31.5,24.4,09.0,0003.4,0008.26,0005.49,0005.27
2023-01-09 04:09:00,,0824.3,5.01,0.00,22.6,21.4,00.0,31.5,24.4,09.1,0003.9,0008.16,0005.35,0005.13
2023-01-09 04:10:00,,0824.2,5.01,0.00,22.7,21.4,00.0,31.5,24.4,09.0,0004.2,0008.04,0005.21,0005.03
2023-01-09 04:11:00,,0824.2,4.99,0.00,22.7,21.4,00.0,31.5,24.5,08.9,0004.0,0007.82,0005.02,0004.86
2023-01-09 04:12:00,,0824.2,4.99,0.00,22.7,21.4,00.0,31.5,24.4,09.2,0002.3,0007.65,0004.86,0004.72
2023-01-09 04:13:00,,0824.2,4.97,0.00,22.7,21.4,00.0,31.5,24.4,09.3,0002.4,0007.54,0004.73,0004.58
2023-01-09 04:14:00,,0824.2,5.01,0.00,22.7,21.4,00.0,31.5,24.4,09.3,0003.5,0007.47,0004.61,0004.45
2023-01-09 04:15:00,,0824.2,5.00,0.00,22.7,21.4,00.0,31.5,24.4,09.1,0002.8,0007.37,0004.51,0004.34
2023-01-09 04:16:00,,0824.2,4.99,0.00,22.7,21.4,00.0,31.5,24.4,09.2,0000.0,0007.29,0004.42,0004.23
2023-01-09 04:17:00,,0824.4,5.01,0.00,22.7,21.4,00.0,31.5,24.4,09.2,0000.6,0007.00,0004.32,0004.11
2023-01-09 04:18:00,,0824.3,5.01,0.00,22.7,21.4,00.0,31.5,24.4,09.0,0000.0,0006.87,0004.23,0004.02
2023-01-09 04:19:00,,0824.2,5.01,0.00,22.7,21.4,00.0,31.5,24.4,09.1,0003.0,0006.73,0004.17,0003.95
2023-01-09 04:20:00,,0824.1,5.00,0.00,22.7,21.4,00.0,31.5,24.3,09.4,0001.2,0006.53,0004.09,0003.86
2023-01-09 04:21:00,,0824.1,5.00,0.00,22.7,21.3,00.0,31.5,24.4,09.7,0000.0,0006.22,0003.96,0003.73
2023-01-09 04:22:00,,0824.2,4.99,0.00,22.7,21.3,00.0,31.5,24.4,09.6,0000.0,0006.19,0003.89,0003.64
2023-01-09 04:23:00,,0824.1,5.01,0.00,22.7,21.3,00.0,31.5,24.3,09.5,0000.0,0005.93,0003.76,0003.51
2023-01-09 04:24:00,,0824.1,5.00,0.00,22.6,21.3,00.0,31.5,24.3,09.4,0000.0,0005.63,0003.60,0003.35
2023-01-09 04:25:00,,0824.1,4.98,0.00,22.6,21.3,00.0,31.5,24.3,09.1,0000.0,0005.81,0003.46,0003.21
2023-01-09 04:26:00,,0824.0,5.00,0.00,22.6,21.3,00.0,31.5,24.3,08.8,0000.0,0005.87,0003.29,0002.98
2023-01-09 04:27:00,,0824.1,5.00,0.00,22.6,21.3,00.0,31.5,24.3,08.8,0000.0,0007.14,0003.08,0002.66
2023-01-09 04:28:00,,0824.1,5.01,0.00,22.6,21.2,00.0,31.5,24.3,08.9,0000.0,0006.77,0002.79,0002.38
2023-01-09 04:29:00,,0824.1,5.01,0.00,22.6,21.2,00.0,31.5,24.3,09.0,0000.0,0006.19,0002.49,0002.08
2023-01-09 04:30:00,,0824.1,5.00,0.00,22.6,21.2,00.0,31.5,24.3,08.9,0000.0,0005.87,0002.22,0001.81
2023-01-09 04:31:00,,0824.1,5.00,0.00,22.6,21.2,00.0,31.5,24.3,09.0,0000.0,0005.53,0001.95,0001.55
2023-01-09 04:32:00,,0824.1,5.00,0.00,22.6,21.2,00.0,31.5,24.3,08.9,0000.0,0005.68,0001.75,0001.34
2023-01-09 04:33:00,,0824.1,5.00,0.00,22.6,21.2,00.0,31.5,24.2,09.0,0000.0,0006.03,0001.57,0001.17
2023-01-09 04:34:00,,0824.1,4.99,0.00,22.5,21.2,00.0,31.5,24.2,09.1,0000.0,0005.96,0001.48,0001.06
2023-01-09 04:35:00,,0824.1,5.00,0.00,22.5,21.2,00.0,31.4,24.2,09.2,0000.0,0005.86,0001.42,0001.00
2023-01-09 04:36:00,,0824.1,5.01,0.00,22.5,21.2,00.0,31.4,24.2,09.6,0000.0,0005.29,0001.34,0000.95
2023-01-09 04:37:00,,0824.1,5.00,0.00,22.5,21.2,00.0,31.4,24.2,09.8,0000.0,0004.89,0001.32,0000.93
2023-01-09 04:38:00,,0824.1,4.99,0.00,22.5,21.1,00.0,31.4,24.1,09.8,0000.0,0003.42,0001.32,0000.92
2023-01-09 04:39:00,,0824.1,5.00,0.00,22.5,21.1,00.0,31.4,24.1,09.6,0000.0,0003.40,0001.33,0000.91
2023-01-09 04:40:00,,0824.1,4.99,0.00,22.5,21.1,00.0,31.4,24.2,10.5,0000.0,0003.37,0001.31,0000.89
2023-01-09 04:41:00,,0824.1,5.01,0.00,22.5,21.1,00.0,31.4,24.3,10.3,0000.0,0003.34,0001.33,0000.95
2023-01-09 04:42:00,,0824.1,5.00,0.00,22.5,21.2,00.0,31.4,24.3,09.9,0000.0,0003.57,0001.57,0001.19
2023-01-09 04:43:00,,0824.2,5.01,0.00,22.5,21.2,00.0,31.4,24.3,10.1,0000.0,0003.70,0001.82,0001.45
2023-01-09 04:44:00,,0824.2,5.01,0.00,22.5,21.2,00.0,31.4,24.3,10.3,0000.0,0003.19,0002.08,0001.70
2023-01-09 04:45:00,,0824.2,4.99,0.00,22.5,21.2,00.0,31.4,24.4,10.3,0000.0,0003.37,0002.29,0001.93
2023-01-09 04:46:00,,0824.2,5.00,0.00,22.6,21.3,00.0,31.4,24.4,09.9,0000.0,0004.15,0002.55,0002.15
2023-01-09 04:47:00,,0824.1,4.98,0.00,22.6,21.3,00.0,31.4,24.4,09.8,0000.0,0004.65,0002.77,0002.34
2023-01-09 04:48:00,,0824.1,5.00,0.00,22.6,21.3,00.0,31.4,24.4,09.8,0000.0,0004.87,0002.96,0002.56
2023-01-09 04:49:00,,0824.1,4.99,0.00,22.6,21.3,00.0,31.4,24.4,09.5,0000.0,0005.02,0003.13,0002.77
2023-01-09 04:50:00,,0824.2,5.00,0.00,22.6,21.3,00.0,31.4,24.4,09.5,0000.0,0005.02,0003.22,0002.95
2023-01-09 04:51:00,,0824.2,5.01,0.00,22.6,21.3,00.0,31.4,24.4,09.7,0000.0,0005.97,0003.33,0003.12
2023-01-09 04:52:00,,0824.3,5.01,0.00,22.6,21.3,00.0,31.4,24.4,09.7,0000.0,0007.38,0003.38,0003.19
2023-01-09 04:53:00,,0824.2,4.98,0.00,22.6,21.3,00.0,31.4,24.4,09.9,0000.0,0007.37,0003.32,0003.12
2023-01-09 04:54:00,,0824.1,5.01,0.00,22.6,21.3,00.0,31.4,24.3,09.9,0000.0,0007.18,0003.21,0002.91
2023-01-09 04:55:00,,0824.1,4.99,0.00,22.6,21.3,00.0,31.4,24.2,10.1,0000.0,0006.86,0003.04,0002.69
2023-01-09 04:56:00,,0824.1,5.00,0.00,22.6,21.2,00.0,31.4,24.2,10.3,0000.0,0006.86,0002.83,0002.47
2023-01-09 04:57:00,,0824.1,5.01,0.00,22.6,21.2,00.0,31.4,24.1,09.7,0000.0,0006.33,0002.54,0002.22
2023-01-09 04:58:00,,0824.1,4.99,0.00,22.5,21.1,00.0,31.4,24.2,09.8,0000.0,0005.83,0002.33,0002.02
2023-01-09 04:59:00,,0824.2,5.00,0.00,22.5,21.1,00.0,31.4,24.2,10.3,0000.0,0005.63,0002.14,0001.82
